Regional Weather Roundup
Issued by NWS Tiyan, Guam

Home | Current Version | Previous Version | Text Only | Print | Product List | Glossary On
Versions: 1 2 3 4 5 6 7 8 9 10 11 12 13 14 15 16 17 18 19 20 21 22 23 24 25 26 27
000
ASGM40 PGUM 090812
RWRGUM
WEATHER ROUNDUP FOR THE MARIANAS
NATIONAL WEATHER SERVICE TIYAN GU
600 PM CHST FRI DEC 09 2016

GUZ001>004-090900-
MARIANA ISLANDS-

CITY           SKY/WX    TMP DP  RH WIND       PRES   REMARKS
GUAM AIRPORT   PTCLDY    82  73  74 E7        29.79R
ANDERSEN AFB   PTCLDY    81  72  74 E12       29.80S
ROTA AIRPORT   PTCLDY    79  73  83 E8        29.79R
TINIAN AP      PTCLDY    84  75  74 E6        29.78R HX  92
SAIPAN AP      MOCLDY    81  75  83 E9        29.79R

$$





USA.gov is the U.S. government's official web portal to all federal, state and local government web resources and services.